Location: ??????????
(54.7560°N, 39.1389°E)
Time: 12:57:59
(UTC+00:00)

COSMOS 2406 - Pass Details

Date: 19 May 2025
Orbit: 845 x 859 km, 71.0° (Epoch: 20 June)

Event Time Altitude Azimuth Distance (km) Brightness Sun altitude
Exits shadow 20:17:09 17° 190° (S) 1,997 4.6 -14.1°
Maximum altitude 20:21:24 59° 115° (ESE) 983 3.3 -14.2°
Drops below altitude 10° 20:27:00 10° 38° (NE) 2,493 6.2 -14.4°
Sets 20:29:30 0° 35° (NE) 3,435 7.0 -14.5°
